Pipestone, MN

11:13 AM CST on February 26, 2017 (GMT -0600)
Pipestone Municipal

Weather History for KPQN - November, 2013

Change the Weather History Date:

Saturday, November 2, 2013

  Actual Average Record
Temperature  
Mean Temperature 42 °F -  
Max Temperature 53 °F 46 °F 73 °F (2005)
Min Temperature 30 °F 29 °F 12 °F (1996)
Degree Days  
Heating Degree Days 24    
Moisture  
Dew Point 31 °F    
Average Humidity 72    
Maximum Humidity 100    
Minimum Humidity 35    
Precipitation  
Precipitation 0.00 in - - ()
Sea Level Pressure  
Sea Level Pressure 30.03 in    
Wind  
Wind Speed 9 mph (NW)    
Max Wind Speed 16 mph    
Max Gust Speed 22 mph    
Visibility 10 miles    
Events      
Averages and records for this station are not official NWS values.
T = Trace of Precipitation, MM = Missing Value Source: NWS Daily Summary

Daily Weather History Graph

Daily Weather History Graph

Search for Another Location

Airport or City:

Trip Planner

Search our weather history database for the weather conditions in past years. The results will help you decide how hot, cold, wet, or windy it might be!

Date:

Astronomy

Nov. 02, 2013 Rise Set
Actual Time 8:03 AM CDT 6:13 PM CDT
Civil Twilight 7:33 AM CDT 6:43 PM CDT
Nautical Twilight 6:58 AM CDT 7:17 PM CDT
Astronomical Twilight 6:25 AM CDT 7:51 PM CDT
Moon 7:00 AM CDT (11/2) 5:46 PM CDT (11/2)
Length of Visible Light 11h 10m
Length of Day
10h 10m
Waning Crescent, 1% of the Moon is Illuminated
Nov 2
Waning Crescent
Nov 3
New
Nov 9
First Quarter
Nov 17
Full
Nov 25
Last Quarter

Hourly Weather History & Observations

Time (CDT) Temp. Windchill Dew Point Humidity Pressure Visibility Wind Dir Wind Speed Gust Speed Precip Events Conditions
12:13 AM 41.0 °F 33.9 °F 37.4 °F 87% 29.94 in 10.0 mi NNW 12.7 mph 20.7 mph N/A   Overcast
12:33 AM 41.0 °F 34.3 °F 37.4 °F 87% 29.94 in 10.0 mi NNW 11.5 mph 19.6 mph N/A   Overcast
12:53 AM 41.0 °F 33.5 °F 35.6 °F 81% 29.95 in 10.0 mi NNW 13.8 mph 20.7 mph N/A   Overcast
1:13 AM 41.0 °F 32.8 °F 35.6 °F 81% 29.96 in 10.0 mi NNW 16.1 mph 21.9 mph N/A   Overcast
1:33 AM 41.0 °F 34.7 °F 35.6 °F 81% 29.97 in 10.0 mi NNW 10.4 mph - N/A   Overcast
1:53 AM 41.0 °F 34.3 °F 35.6 °F 81% 29.97 in 10.0 mi NNW 11.5 mph - N/A   Overcast
2:13 AM 39.2 °F 32.5 °F 35.6 °F 87% 29.97 in 10.0 mi NNW 10.4 mph - N/A   Overcast
2:33 AM 39.2 °F 32.5 °F 35.6 °F 87% 29.98 in 10.0 mi NNW 10.4 mph - N/A   Mostly Cloudy
2:53 AM 39.2 °F 33.0 °F 35.6 °F 87% 29.99 in 10.0 mi NNW 9.2 mph - N/A   Mostly Cloudy
3:14 AM 37.4 °F 30.3 °F 33.8 °F 87% 29.99 in 10.0 mi NNW 10.4 mph - N/A   Clear
3:33 AM 37.4 °F 30.8 °F 33.8 °F 87% 30.00 in 10.0 mi NW 9.2 mph - N/A   Clear
3:54 AM 35.6 °F 29.2 °F 33.8 °F 93% 30.00 in 10.0 mi NW 8.1 mph - N/A   Clear
4:13 AM 35.6 °F 29.2 °F 33.8 °F 93% 30.00 in 10.0 mi NW 8.1 mph - N/A   Clear
4:33 AM 33.8 °F 27.0 °F 32.0 °F 93% 30.01 in 10.0 mi NW 8.1 mph - N/A   Clear
4:53 AM 33.8 °F 27.7 °F 32.0 °F 93% 30.01 in 10.0 mi NW 6.9 mph - N/A   Clear
5:13 AM 33.8 °F 27.0 °F 32.0 °F 93% 30.02 in 10.0 mi NW 8.1 mph - N/A   Clear
5:33 AM 33.8 °F 27.0 °F 30.2 °F 87% 30.03 in 10.0 mi NW 8.1 mph - N/A   Clear
5:53 AM 33.8 °F 27.7 °F 30.2 °F 87% 30.03 in 10.0 mi NW 6.9 mph - N/A   Clear
6:13 AM 32.0 °F 24.8 °F 30.2 °F 93% 30.04 in 10.0 mi NW 8.1 mph - N/A   Clear
6:33 AM 32.0 °F 24.2 °F 30.2 °F 93% 30.04 in 7.0 mi NW 9.2 mph - N/A   Clear
6:53 AM 30.2 °F 21.3 °F 30.2 °F 100% 30.05 in 10.0 mi NW 10.4 mph - N/A   Clear
7:13 AM 30.2 °F 22.6 °F 30.2 °F 100% 30.04 in 10.0 mi NW 8.1 mph - N/A   Clear
7:33 AM 30.2 °F 21.9 °F 28.4 °F 93% 30.05 in 10.0 mi NW 9.2 mph - N/A   Clear
7:53 AM 30.2 °F 22.6 °F 30.2 °F 100% 30.04 in 10.0 mi NW 8.1 mph - N/A   Clear
8:14 AM 30.2 °F 23.4 °F 28.4 °F 93% 30.05 in 10.0 mi NW 6.9 mph - N/A   Clear
8:33 AM 30.2 °F 24.3 °F 28.4 °F 93% 30.05 in 10.0 mi NW 5.8 mph - N/A   Clear
8:53 AM 30.2 °F 24.3 °F 30.2 °F 100% 30.06 in 10.0 mi NW 5.8 mph - N/A   Clear
9:13 AM 32.0 °F 26.4 °F 30.2 °F 93% 30.06 in 10.0 mi NW 5.8 mph - N/A   Clear
9:33 AM 33.8 °F 28.6 °F 30.2 °F 87% 30.07 in 10.0 mi NW 5.8 mph - N/A   Clear
9:53 AM 33.8 °F 27.7 °F 32.0 °F 93% 30.07 in 10.0 mi West 6.9 mph - N/A   Clear
10:13 AM 35.6 °F 29.2 °F 32.0 °F 87% 30.08 in 10.0 mi West 8.1 mph - N/A   Clear
10:33 AM 35.6 °F 29.9 °F 33.8 °F 93% 30.08 in 10.0 mi West 6.9 mph - N/A   Clear
10:53 AM 39.2 °F 34.2 °F 33.8 °F 81% 30.08 in 10.0 mi WNW 6.9 mph - N/A   Clear
11:13 AM 41.0 °F 35.2 °F 33.8 °F 76% 30.09 in 10.0 mi WNW 9.2 mph - N/A   Clear
11:33 AM 42.8 °F 38.0 °F 33.8 °F 70% 30.09 in 10.0 mi WNW 8.1 mph - N/A   Clear
11:53 AM 44.6 °F 40.2 °F 33.8 °F 66% 30.09 in 10.0 mi West 8.1 mph - N/A   Clear
12:13 PM 44.6 °F 40.2 °F 33.8 °F 66% 30.09 in 10.0 mi WNW 8.1 mph - N/A   Clear
12:33 PM 48.2 °F - 33.8 °F 58% 30.09 in 10.0 mi WNW 10.4 mph - N/A   Clear
12:53 PM 48.2 °F - 33.8 °F 58% 30.08 in 10.0 mi WNW 10.4 mph - N/A   Clear
1:13 PM 48.2 °F - 33.8 °F 58% 30.08 in 10.0 mi West 11.5 mph - N/A   Clear
1:33 PM 50.0 °F - 33.8 °F 54% 30.07 in 10.0 mi West 10.4 mph - N/A   Clear
1:53 PM 50.0 °F - 33.8 °F 54% 30.07 in 10.0 mi WNW 10.4 mph - N/A   Clear
2:13 PM 51.8 °F - 33.8 °F 50% 30.06 in 10.0 mi WNW 9.2 mph 17.3 mph N/A   Clear
2:33 PM 51.8 °F - 33.8 °F 50% 30.05 in 10.0 mi NW 10.4 mph 16.1 mph N/A   Clear
2:53 PM 51.8 °F - 32.0 °F 47% 30.05 in 10.0 mi NW 12.7 mph - N/A   Clear
3:13 PM 53.6 °F - 30.2 °F 41% 30.05 in 10.0 mi NW 11.5 mph 16.1 mph N/A   Clear
3:33 PM 53.6 °F - 30.2 °F 41% 30.04 in 10.0 mi WNW 8.1 mph - N/A   Clear
3:53 PM 53.6 °F - 28.4 °F 38% 30.04 in 10.0 mi NW 9.2 mph - N/A   Clear
4:13 PM 53.6 °F - 28.4 °F 38% 30.04 in 10.0 mi NNW 9.2 mph - N/A   Clear
4:33 PM 53.6 °F - 26.6 °F 35% 30.04 in 10.0 mi NNW 8.1 mph - N/A   Clear
4:53 PM 53.6 °F - 26.6 °F 35% 30.04 in 10.0 mi NNW 9.2 mph - N/A   Clear
5:13 PM 51.8 °F - 26.6 °F 38% 30.04 in 10.0 mi NW 6.9 mph - N/A   Clear
5:33 PM 51.8 °F - 28.4 °F 41% 30.03 in 10.0 mi NNW 4.6 mph - N/A   Clear
5:53 PM 50.0 °F - 28.4 °F 43% 30.03 in 10.0 mi Calm Calm - N/A   Clear
6:13 PM 50.0 °F - 28.4 °F 43% 30.03 in 10.0 mi Calm Calm - N/A   Clear
6:33 PM 44.6 °F - 28.4 °F 53% 30.03 in 10.0 mi Calm Calm - N/A   Clear
6:53 PM 42.8 °F - 30.2 °F 61% 30.03 in 10.0 mi Calm Calm - N/A   Clear
7:13 PM 42.8 °F - 30.2 °F 61% 30.04 in 10.0 mi Calm Calm - N/A   Clear
7:33 PM 41.0 °F 39.0 °F 30.2 °F 65% 30.04 in 10.0 mi SSW 3.5 mph - N/A   Clear
7:53 PM 39.2 °F - 28.4 °F 65% 30.04 in 10.0 mi Calm Calm - N/A   Clear
8:13 PM 39.2 °F - 28.4 °F 65% 30.03 in 10.0 mi Calm Calm - N/A   Clear
8:33 PM 41.0 °F - 28.4 °F 61% 30.03 in 10.0 mi Calm Calm - N/A   Clear
8:53 PM 39.2 °F - 28.4 °F 65% 30.02 in 10.0 mi Calm Calm - N/A   Clear
9:13 PM 39.2 °F 37.0 °F 28.4 °F 65% 30.02 in 10.0 mi SSE 3.5 mph - N/A   Clear
9:34 PM 39.2 °F 35.9 °F 28.4 °F 65% 30.01 in 10.0 mi SSE 4.6 mph - N/A   Clear
9:53 PM 41.0 °F - 30.2 °F 65% 30.01 in 10.0 mi Calm Calm - N/A   Clear
10:13 PM 39.2 °F 35.9 °F 30.2 °F 70% 30.01 in 10.0 mi SSE 4.6 mph - N/A   Clear
10:33 PM 39.2 °F 37.0 °F 30.2 °F 70% 30.02 in 10.0 mi SE 3.5 mph - N/A   Clear
10:53 PM 37.4 °F 33.8 °F 28.4 °F 70% 30.01 in 10.0 mi SSE 4.6 mph - N/A   Clear
11:13 PM 37.4 °F 32.1 °F 28.4 °F 70% 30.01 in 10.0 mi SE 6.9 mph - N/A   Clear
11:33 PM 35.6 °F 29.9 °F 28.4 °F 75% 30.01 in 10.0 mi SE 6.9 mph - N/A   Clear
11:53 PM 35.6 °F 30.7 °F 28.4 °F 75% 30.01 in 10.0 mi SE 5.8 mph - N/A   Clear